TimeCDT,TemperatureF,Dew PointF,Humidity,Sea Level PressureIn,VisibilityMPH,Wind Direction,Wind SpeedMPH,Gust SpeedMPH,PrecipitationIn,Events,Conditions,WindDirDegrees,DateUTC
12:53 AM,33.1,26.1,75,30.09,10.0,WNW,4.6,-,N/A,,Clear,300,2013-04-20 05:53:00
1:53 AM,32.0,26.1,79,30.09,10.0,WNW,3.5,-,N/A,,Clear,300,2013-04-20 06:53:00
2:53 AM,32.0,24.1,73,30.10,10.0,NW,6.9,-,N/A,,Clear,320,2013-04-20 07:53:00
3:53 AM,30.9,25.0,79,30.12,10.0,West,3.5,-,N/A,,Clear,280,2013-04-20 08:53:00
4:53 AM,30.0,24.1,79,30.14,10.0,WNW,4.6,-,N/A,,Clear,300,2013-04-20 09:53:00
5:53 AM,30.0,24.1,79,30.16,10.0,NW,4.6,-,N/A,,Clear,310,2013-04-20 10:53:00
6:53 AM,30.0,25.0,82,30.19,10.0,NW,5.8,-,N/A,,Clear,310,2013-04-20 11:53:00
7:53 AM,32.0,27.0,82,30.23,10.0,WNW,6.9,-,N/A,,Clear,290,2013-04-20 12:53:00
8:53 AM,35.1,28.0,76,30.26,10.0,Calm,Calm,-,N/A,,Clear,0,2013-04-20 13:53:00
9:53 AM,37.0,28.9,73,30.28,10.0,SSW,4.6,-,N/A,,Partly Cloudy,210,2013-04-20 14:53:00
10:53 AM,41.0,30.0,65,30.30,10.0,Variable,3.5,-,N/A,,Scattered Clouds,0,2013-04-20 15:53:00
11:53 AM,42.1,26.1,53,30.30,10.0,NW,3.5,-,N/A,,Partly Cloudy,320,2013-04-20 16:53:00
12:53 PM,45.0,25.0,46,30.29,10.0,Calm,Calm,-,N/A,,Partly Cloudy,0,2013-04-20 17:53:00
1:53 PM,46.0,28.0,50,30.29,10.0,ESE,4.6,-,N/A,,Scattered Clouds,110,2013-04-20 18:53:00
2:53 PM,46.9,27.0,46,30.28,10.0,Variable,6.9,-,N/A,,Clear,0,2013-04-20 19:53:00
3:53 PM,48.0,26.1,42,30.28,10.0,SE,8.1,-,N/A,,Clear,140,2013-04-20 20:53:00
4:53 PM,48.9,26.1,41,30.27,10.0,East,6.9,-,N/A,,Clear,90,2013-04-20 21:53:00
5:53 PM,48.9,26.1,41,30.28,10.0,Variable,3.5,-,N/A,,Clear,0,2013-04-20 22:53:00
6:53 PM,46.9,27.0,46,30.28,10.0,East,4.6,-,N/A,,Clear,80,2013-04-20 23:53:00
7:53 PM,45.0,28.9,53,30.31,10.0,ESE,3.5,-,N/A,,Clear,110,2013-04-21 00:53:00
8:53 PM,43.0,30.0,60,30.33,10.0,East,4.6,-,N/A,,Partly Cloudy,100,2013-04-21 01:53:00
9:53 PM,44.1,28.9,55,30.33,10.0,ESE,8.1,-,N/A,,Mostly Cloudy,110,2013-04-21 02:53:00
10:53 PM,42.1,28.0,58,30.35,10.0,ESE,5.8,-,N/A,,Clear,120,2013-04-21 03:53:00
11:53 PM,41.0,28.9,62,30.35,10.0,ESE,6.9,-,N/A,,Clear,120,2013-04-21 04:53:00